Location: Fort Wayne
(41.1310°N, 85.1290°W)
Time: 18:25:03
(UTC-04:00)

Daily predictions for brighter satellites

Satellite Brightness Start Highest point End
(mag) Time Altitude Azimuth Time Altitude Azimuth Time Altitude Azimuth
H-2A R/B 4.0 21:45:40 10° S 21:49:19 41° W 21:52:56 10° NNW
ATLAS CENTAUR R/B 3.8 21:47:03 10° WNW 21:50:15 20° WSW 21:53:16 10° SSW
Cosmos 773 Rocket 4.0 21:45:20 10° NNW 21:50:34 78° ENE 21:55:47 10° SSE
Cosmos 1939 Rocket 3.0 21:46:56 10° SSE 21:50:46 54° ENE 21:54:35 10° N
H-2A R/B 2.3 21:46:44 10° SSE 21:51:12 62° ENE 21:55:40 10° N
Cosmos 1328 Rocket 3.9 21:47:48 10° NNW 21:52:14 70° W 21:56:38 10° S
CZ-4 DEB 3.9 21:49:10 10° S 21:52:15 43° W 21:55:21 10° NNW
Cosmos 1437 Rocket 2.7 21:48:50 10° N 21:52:39 74° E 21:56:30 10° SSE
COSMOS 2428 3.7 21:50:48 10° N 21:55:55 33° ENE 22:00:59 10° ESE
SPOT 5 3.3 21:54:01 10° SE 21:58:21 44° ENE 22:02:57 10° N
NOSS 3-1 (A) 4.3 21:55:09 10° SSE 21:59:58 27° ESE 22:05:07 10° NE
PSLV R/B 4.1 22:00:39 10° SE 22:03:27 33° ENE 22:06:16 10° N
Cosmos 2219 Rocket 3.9 21:59:49 10° N 22:03:56 20° NE 22:08:02 10° E
ARGOS 4.4 21:59:53 10° ESE 22:04:20 27° ENE 22:08:46 10° N
Cosmos 304 Rocket 3.9 21:59:42 10° NNW 22:04:30 66° ENE 22:09:16 10° SSE
Meteor 2-2 Rocket 4.5 21:58:57 10° N 22:04:59 88° W 22:11:01 10° S
Cosmos 1500 Rocket 4.4 22:10:41 10° SSW 22:14:56 52° W 22:19:17 10° N
Cosmos 1437 2.7 22:16:14 10° S 22:19:30 78° E 22:22:47 10° NNE
Cosmos 1328 3.8 22:16:37 10° S 22:20:31 64° E 22:24:26 10° NNE
Cosmos 1726 3.4 22:17:50 10° NNE 22:21:06 27° ENE 22:23:25 15° SE
ATLAS 2AS CENTAUR R/B 4.2 22:18:20 12° SE 22:22:39 19° ESE 22:27:44 10° ENE
Envisat 3.1 22:20:15 10° S 22:25:19 77° WSW 22:30:25 10° NNW
ERS-1 Rocket 4.0 22:21:42 10° S 22:26:28 43° W 22:31:17 10° NNW
Cosmos 2219 3.2 22:22:58 10° SSW 22:28:41 74° ESE 22:34:26 10° NNE
Delta 2 Rocket 3.7 22:26:48 10° WSW 22:30:05 33° S 22:31:53 19° SE
Cosmos 2237 Rocket 3.7 22:31:00 10° N 22:35:36 24° NE 22:39:42 12° ESE
ATLAS 3B R/B 4.5 22:31:41 10° NNW 22:37:08 23° NNE 22:42:20 10° E
Cosmos 2322 4.1 22:32:11 10° NNW 22:37:48 60° WSW 22:43:02 12° S
Cosmos 2322 Rocket 4.4 22:34:01 10° NW 22:37:57 20° W 22:41:54 10° SW
Cosmos 1271 Rocket 3.9 22:34:54 10° NNE 22:38:16 28° ENE 22:40:05 19° ESE
SL-23 DEB 3.9 22:33:11 10° NW 22:38:20 78° SW 22:40:32 22° SE
Cosmos 2112 Rocket 4.1 22:33:38 10° NNW 22:38:52 75° WSW 22:43:24 14° S
Cosmos 2151 3.5 22:37:16 10° SSW 22:41:24 59° W 22:45:34 10° N
Cosmos 1703 4.3 22:41:16 21° SE 22:42:50 28° E 22:46:13 10° NNE
SL-14 R/B 3.4 22:40:06 17° SSE 22:43:01 53° E 22:46:55 10° NNE
Meteor 1-4 Rocket 3.5 22:40:22 10° N 22:43:50 34° ENE 22:45:29 23° ESE
Cosmos 2242 Rocket 4.2 22:40:00 10° N 22:44:14 40° ENE 22:46:44 21° SE
Cosmos 1937 Rocket 4.0 22:41:23 15° SSE 22:45:12 38° ESE 22:50:00 10° NE
Terra 3.2 22:43:25 16° ESE 22:46:02 25° ENE 22:49:56 10° NNE
NOSS 3-1 (C) 3.3 22:40:23 10° SSW 22:46:12 78° ESE 22:52:41 10° NE
Meteor 1-27 4.2 22:40:33 10° N 22:46:15 74° E 22:50:34 18° SSE
Cosmos 2298 Rocket 4.0 22:41:31 10° S 22:46:47 67° ESE 22:52:04 10° NNE
Cosmos 2360 Rocket 2.9 22:41:51 10° NW 22:47:16 48° WSW 22:52:21 12° S
MetOp-B 4.3 22:44:55 13° S 22:49:42 75° WSW 22:55:05 10° NNW
Lacrosse 4 Rocket 4.2 22:49:28 10° NE 22:49:58 10° NE 22:50:27 10° NE
NOAA 11 4.3 22:47:19 19° SSE 22:51:13 65° ENE 22:56:37 10° N
Sich 1 3.1 22:48:46 17° S 22:52:05 63° E 22:56:27 10° NNE
FALCON 9 R/B 4.4 22:18:49 10° WSW 22:52:40 65° S 23:00:29 10° E
CZ-4 SHROUD 4.5 22:51:29 14° SSW 22:53:52 36° W 22:56:49 10° NNW
USA 245 2.0 22:53:37 41° SSE 22:54:21 88° E 22:56:40 10° NNW
DELTA 2 R/B (1) 4.2 22:50:09 10° W 22:55:16 39° SSW 22:58:07 23° SSE
Cosmos 1633 Rocket 3.0 22:52:39 18° S 22:55:47 65° E 23:00:07 10° NNE
Cosmos 2058 3.2 22:52:24 10° SSW 22:56:27 66° W 23:00:33 10° N
DELTA 2 DEB (DPAF) 4.5 22:58:33 25° SE 23:00:53 52° ENE 23:05:16 10° N
OAO 2 Rocket 4.0 22:56:09 10° SW 23:00:57 34° SSE 23:03:20 23° ESE
Cosmos 1626 3.5 23:01:03 23° E 23:01:29 23° E 23:04:30 10° NE
COSMOS 2455 4.4 23:01:02 10° N 23:05:55 25° NE 23:10:13 12° E
SL-08 RB Rocket 3.6 23:06:51 27° SSE 23:09:17 85° ENE 23:13:48 10° NNW
CZ-4 R/B 3.8 23:04:29 10° NNE 23:09:28 85° ESE 23:13:19 16° SSW
H-2A R/B 2.5 23:08:02 26° SE 23:10:54 53° ENE 23:16:10 10° N
CZ-4B R/B 3.9 23:05:57 10° N 23:11:12 69° WNW 23:16:20 10° SSW
Cosmos 1805 Rocket 4.4 23:07:02 10° SSW 23:11:21 49° W 23:15:41 10° N
Cosmos 2227 Rocket 2.5 23:11:30 24° SSE 23:14:28 45° ESE 23:19:50 10° NE
YAOGAN 6 3.8 23:12:45 18° SSW 23:15:02 36° W 23:18:24 10° NNW
Cosmos 1300 3.6 23:11:54 10° NNW 23:15:34 44° W 23:17:53 20° SSW
Tiangong 1 0.8 23:13:22 10° WSW 23:16:27 76° SSE 23:17:13 47° E
SPOT 1/Viking Rocket 4.2 23:19:48 19° S 23:23:19 51° W 23:28:21 10° NNW
Cosmos 1241 Rocket 4.4 23:22:15 15° SSW 23:27:24 62° ESE 23:33:35 10° NE
Cosmos 1898 Rocket 3.9 23:23:05 10° SSW 23:28:11 61° WNW 23:33:22 10° NNE
Cosmos 2333 Rocket 2.3 23:22:52 10° NNW 23:28:38 69° ENE 23:31:18 33° SE
SL-16 R/B 3.5 23:24:14 10° N 23:29:07 28° NE 23:32:01 19° E
IGS 5A 3.6 23:29:11 42° SE 23:30:22 60° ENE 23:34:29 10° N
SeaSat 1 4.3 23:29:32 13° E 23:32:19 20° NE 23:35:51 10° N
Cosmos 1125 Rocket 4.3 23:33:30 31° ESE 23:34:17 32° E 23:38:57 10° NE
Cosmos 220 Rocket 4.2 23:31:40 20° SSW 23:34:37 73° WNW 23:39:04 10° NNE
Cosmos 1455 2.1 23:34:25 10° N 23:38:13 71° E 23:38:49 58° SE
Nadezhda 1 Rocket 3.9 23:33:08 10° N 23:39:15 87° E 23:42:17 32° S
COSMOS 2428 3.8 23:35:01 10° NW 23:40:10 37° WSW 23:43:18 21° SSW
SAR-Lupe-2 3.4 23:40:40 64° SE 23:41:04 75° ENE 23:44:39 10° N
Cosmos 2297 Rocket 2.3 23:39:28 36° SSE 23:41:28 53° ESE 23:46:57 10° NNE
ARGOS 4.1 23:41:02 20° SSW 23:44:21 40° W 23:49:26 10° NNW
Cosmos 1470 Rocket 3.7 23:45:42 35° SSW 23:47:26 69° W 23:51:44 10° N
Cosmos 2219 Rocket 2.4 23:42:49 10° NNW 23:48:22 64° WSW 23:50:35 36° S
Cosmos 1933 Rocket 3.7 23:46:48 34° SSW 23:48:38 70° W 23:53:07 10° N
NOSS 3-1 (A) 4.2 23:44:36 10° SW 23:50:23 52° NW 23:56:49 10° NNE
Cosmos 1745 Rocket 4.3 23:47:13 19° SSW 23:51:42 64° W 23:57:51 10° N
Cosmos 1703 Rocket 4.3 23:47:59 10° N 23:52:05 38° ENE 23:52:36 36° E
Cosmos 1869 3.2 23:51:38 10° N 23:55:42 88° W 23:56:15 66° S
Cosmos 1726 4.5 23:53:38 10° NW 23:56:16 18° W 23:58:06 13° WSW
